(306522) = 1999 XZ14

Discovered at Socorro on 1999-12-06 by LINEAR.

Orbit

Orbit type: Mars-crosser

Note: WebGL enabled browser required.

epoch2023-09-13.0
epoch JD2460200.5
perihelion date2024-04-06.18260
perihelion JD2460406.68260
argument of perihelion (°)273.89903
ascending node (°)89.25999
inclination (°)23.73322
eccentricity0.3272780
perihelion distance (AU)1.5608338
Tisserand w.r.t. Jupiter3.4
ΔV w.r.t. Earth (km/sec)10.4
semimajor axis (AU)2.3201767
mean anomaly (°)302.49915
mean daily motion (°/day)0.27888310
aphelion distance (AU)3.080
period (years)3.53
P-vector [x]0.91411258
P-vector [y]0.21128615
P-vector [z]-0.34605830
Q-vector [x]-0.04935726
Q-vector [y]0.90513341
Q-vector [z]0.42225273
absolute magnitude15.8
phase slope0.15
uncertainty0
referenceMPEC 2023-N43
observations used949
oppositions14
arc length (days)8674
first opposition used1999
last opposition used2023
residual rms (arc-secs)0.69
perturbers coarse indicatorM-v
perturbers precise indicator003Ek
first observation date used1999-10-09.0
last observation date used2023-07-09.0
computer nameMPCLINUX
JD of orbit computation2456819.372069
perihelion JD uncertainty (days)4.6629E-05
argument of perihelion uncertainty (°)2.0221E-05
ascending node uncertainty (°)1.3261E-05
inclination uncertainty (°)8.6603E-06
eccentricity uncertainty 8.6342E-08
perihelion distance uncertainty (AU)2.0496E-07
Minimum Orbit Intersection Distances (in AU)
for orbit epoch: 2460000.5, reference: E2023-N43
Mercury1.21718
Venus0.91613
Earth0.75268
Mars0.39366
Jupiter2.83818
Saturn6.6452
Uranus15.6699
Neptune27.8427

Observations

963 total observations over interval: 1999 10 09.40220 – 2023 07 09.248840
These data are available for download (format description).

Date (UT) J2000 RA J2000 Dec Magn Location Ref
1999 10 09.40220 06 03 52.38 +02 58 44.4 19.2   704 – Lincoln Laboratory ETS, New Mexico MPS 12093
1999 10 09.41790 06 03 53.07 +02 58 50.5 19.1   704 – Lincoln Laboratory ETS, New Mexico MPS 12093
1999 10 09.43373 06 03 53.84 +02 58 55.7 19.1   704 – Lincoln Laboratory ETS, New Mexico MPS 12093
1999 10 09.44946 06 03 54.51 +02 59 00.0 19.2   704 – Lincoln Laboratory ETS, New Mexico MPS 12093
1999 10 09.46533 06 03 55.18 +02 59 05.6 19.1   704 – Lincoln Laboratory ETS, New Mexico MPS 12093
1999 11 05.41177 06 10 47.65 +06 27 39.3 18.5   704 – Lincoln Laboratory ETS, New Mexico MPS 8860
1999 11 05.44449 06 10 46.85 +06 28 00.2 18.7   704 – Lincoln Laboratory ETS, New Mexico MPS 8860
1999 11 05.46082 06 10 46.46 +06 28 11.2 19.2   704 – Lincoln Laboratory ETS, New Mexico MPS 8860
1999 11 05.47714 06 10 46.03 +06 28 21.5 18.8   704 – Lincoln Laboratory ETS, New Mexico MPS 8860
1999 12 06.29046 05 39 50.67 +14 07 45.8 18.0   704 – Lincoln Laboratory ETS, New Mexico MPS 7951
1999 12 06.30473 05 39 49.22 +14 08 00.8 18.5   704 – Lincoln Laboratory ETS, New Mexico MPS 7951
1999 12 06.31899 05 39 47.91 +14 08 16.3 18.2   704 – Lincoln Laboratory ETS, New Mexico MPS 7951
1999 12 06.33325 05 39 46.60 +14 08 31.1 18.0   704 – Lincoln Laboratory ETS, New Mexico MPS 7951
1999 12 06.34753 05 39 45.17 +14 08 48.3 18.3   704 – Lincoln Laboratory ETS, New Mexico MPS 7951
1999 12 07.28837 05 38 21.26 +14 25 32.7 17.6   704 – Lincoln Laboratory ETS, New Mexico MPS 7951
1999 12 07.30299 05 38 19.89 +14 25 48.2 17.6   704 – Lincoln Laboratory ETS, New Mexico MPS 7951
1999 12 07.31756 05 38 18.54 +14 26 03.9 17.8   704 – Lincoln Laboratory ETS, New Mexico MPS 7951
1999 12 07.33213 05 38 17.18 +14 26 19.7 17.9   704 – Lincoln Laboratory ETS, New Mexico MPS 7951
1999 12 07.34680 05 38 15.76 +14 26 35.9 17.9   704 – Lincoln Laboratory ETS, New Mexico MPS 7951
1999 12 08.31671 05 36 48.46 +14 43 55.1 17.5   704 – Lincoln Laboratory ETS, New Mexico MPS 7951
1999 12 08.32919 05 36 47.26 +14 44 08.6 17.9   704 – Lincoln Laboratory ETS, New Mexico MPS 7951
1999 12 08.34167 05 36 46.10 +14 44 21.9 18.0   704 – Lincoln Laboratory ETS, New Mexico MPS 7951
1999 12 08.35411 05 36 44.92 +14 44 35.4 18.1   704 – Lincoln Laboratory ETS, New Mexico MPS 7951
1999 12 08.36658 05 36 43.65 +14 44 49.1 18.3   704 – Lincoln Laboratory ETS, New Mexico MPS 7951
1999 12 14.22026 05 27 50.86 +16 29 32.9 17.9   704 – Lincoln Laboratory ETS, New Mexico MPS 8860
1999 12 14.23469 05 27 49.48 +16 29 48.1 18.3   704 – Lincoln Laboratory ETS, New Mexico MPS 8860
1999 12 14.24917 05 27 48.11 +16 30 04.2 17.9   704 – Lincoln Laboratory ETS, New Mexico MPS 8860
1999 12 14.26367 05 27 46.79 +16 30 20.5 18.2   704 – Lincoln Laboratory ETS, New Mexico MPS 8860
1999 12 14.27833 05 27 45.39 +16 30 35.1 18.1   704 – Lincoln Laboratory ETS, New Mexico MPS 8860
1999 12 15.32339 05 26 10.45 +16 49 08.7 18.0   704 – Lincoln Laboratory ETS, New Mexico MPS 8860
1999 12 15.33972 05 26 08.96 +16 49 26.0 18.4   704 – Lincoln Laboratory ETS, New Mexico MPS 8860
1999 12 15.35571 05 26 07.45 +16 49 42.6 18.4   704 – Lincoln Laboratory ETS, New Mexico MPS 8860
1999 12 15.37146 05 26 05.96 +16 49 59.6 18.5   704 – Lincoln Laboratory ETS, New Mexico MPS 8860
1999 12 15.38708 05 26 04.53 +16 50 16.4 18.2   704 – Lincoln Laboratory ETS, New Mexico MPS 8860
2000 01 03.22523 05 01 26.59 +21 58 23.9 18.4   704 – Lincoln Laboratory ETS, New Mexico MPS 8860
2000 01 03.24001 05 01 25.60 +21 58 36.6 18.6   704 – Lincoln Laboratory ETS, New Mexico MPS 8860
2000 01 03.25478 05 01 24.66 +21 58 49.2 18.7   704 – Lincoln Laboratory ETS, New Mexico MPS 8860
2000 01 03.26961 05 01 23.68 +21 59 02.4 18.8   704 – Lincoln Laboratory ETS, New Mexico MPS 8860
2000 01 03.28443 05 01 22.76 +21 59 15.5 19.1   704 – Lincoln Laboratory ETS, New Mexico MPS 8860
2000 01 05.15738 04 59 33.92 +22 26 07.3 18.6   704 – Lincoln Laboratory ETS, New Mexico MPS 8860
2000 01 05.17198 04 59 33.11 +22 26 19.5 19.3   704 – Lincoln Laboratory ETS, New Mexico MPS 8860
2000 01 05.18650 04 59 32.30 +22 26 31.0 19.4   704 – Lincoln Laboratory ETS, New Mexico MPS 8860
2000 01 05.21553 04 59 30.50 +22 26 56.4 19.1   704 – Lincoln Laboratory ETS, New Mexico MPS 8860
2005 05 10.390957 14 25 35.604 +16 00 59.29 20.51 V 645 – Apache Point-Sloan Digital Sky Survey MPS 431021
2005 05 10.394429 14 25 35.384 +16 00 58.88 21.35   645 – Apache Point-Sloan Digital Sky Survey MPS 431021
2005 05 12.282397 14 23 38.080 +15 57 25.20 20.48 V 645 – Apache Point-Sloan Digital Sky Survey MPS 431021
2005 05 12.285869 14 23 37.866 +15 57 24.68 21.31   645 – Apache Point-Sloan Digital Sky Survey MPS 431021
2006 10 01.71877 05 09 31.32 -09 11 41.7 17.8 V E12 – Siding Spring Survey MPS 186730
2006 10 01.72958 05 09 31.71 -09 11 40.7 18.1 V E12 – Siding Spring Survey MPS 186730
2006 10 01.74061 05 09 32.11 -09 11 39.0 18.3 V E12 – Siding Spring Survey MPS 186730
2006 10 01.75162 05 09 32.54 -09 11 38.1 18.2 V E12 – Siding Spring Survey MPS 186730
2006 11 08.46323 05 00 54.33 -05 17 39.5 16.9 R 644 – Palomar Mountain/NEAT MPS 190256
2006 11 08.47706 05 00 53.36 -05 17 28.8 16.9 R 644 – Palomar Mountain/NEAT MPS 190256
2006 11 08.49122 05 00 52.38 -05 17 18.2 17.0 R 644 – Palomar Mountain/NEAT MPS 190256
2006 11 10.30791 04 58 48.30 -04 53 31.5 18.2   704 – Lincoln Laboratory ETS, New Mexico MPS 186730
2006 11 10.31988 04 58 47.36 -04 53 22.0 18.2   704 – Lincoln Laboratory ETS, New Mexico MPS 186730
2006 11 10.33185 04 58 46.48 -04 53 11.9 18.0   704 – Lincoln Laboratory ETS, New Mexico MPS 186730
2006 11 10.34405 04 58 45.58 -04 53 02.6 18.2   704 – Lincoln Laboratory ETS, New Mexico MPS 186730
2006 11 10.35595 04 58 44.73 -04 52 53.4 18.5   704 – Lincoln Laboratory ETS, New Mexico MPS 186730
2006 11 16.34777 04 51 05.32 -03 24 19.9 17.6 V 703 – Catalina Sky Survey MPS 186730
2006 11 16.36054 04 51 04.24 -03 24 07.5 17.4 V 703 – Catalina Sky Survey MPS 186730
2006 11 16.38598 04 51 02.05 -03 23 43.5 17.5 V 703 – Catalina Sky Survey MPS 186730
2006 11 22.25961 04 42 39.35 -01 42 33.0 18.0   704 – Lincoln Laboratory ETS, New Mexico MPS 188302
2006 11 22.27219 04 42 38.23 -01 42 18.7 18.0   704 – Lincoln Laboratory ETS, New Mexico MPS 188302
2006 11 22.28570 04 42 36.95 -01 42 04.2 17.9   704 – Lincoln Laboratory ETS, New Mexico MPS 188302
2006 11 22.29838 04 42 35.75 -01 41 50.7 18.5   704 – Lincoln Laboratory ETS, New Mexico MPS 188302
2006 11 22.31111 04 42 34.64 -01 41 35.6 18.2   704 – Lincoln Laboratory ETS, New Mexico MPS 188302
2006 11 22.33948 04 42 32.07 -01 41 05.1 17.4 V 703 – Catalina Sky Survey MPS 188302
2006 11 22.34712 04 42 31.35 -01 40 56.5 17.5 V 703 – Catalina Sky Survey MPS 188302
2006 11 22.35479 04 42 30.67 -01 40 47.9 17.4 V 703 – Catalina Sky Survey MPS 188302
2006 11 22.36244 04 42 29.91 -01 40 39.5 17.5 V 703 – Catalina Sky Survey MPS 188302
2006 12 07.33669 04 20 31.05 +03 25 21.6 17.3 R 644 – Palomar Mountain/NEAT MPS 191760
2006 12 07.33793 04 20 30.93 +03 25 23.4 17.2 R 644 – Palomar Mountain/NEAT MPS 191760
2006 12 07.35763 04 20 29.27 +03 25 48.7 17.3 R 644 – Palomar Mountain/NEAT MPS 191760
2006 12 07.35886 04 20 29.13 +03 25 50.1 17.2 R 644 – Palomar Mountain/NEAT MPS 191760
2006 12 07.37856 04 20 27.46 +03 26 16.2 17.5 R 644 – Palomar Mountain/NEAT MPS 191760
2006 12 07.37977 04 20 27.37 +03 26 17.7 17.3 R 644 – Palomar Mountain/NEAT MPS 191760
2006 12 09.34480 04 17 48.31 +04 09 19.1   291 – LPL/Spacewatch II MPS 191760
2006 12 09.34853 04 17 48.00 +04 09 24.0   291 – LPL/Spacewatch II MPS 191760
2006 12 09.35233 04 17 47.69 +04 09 29.0   291 – LPL/Spacewatch II MPS 191760
2006 12 11.19882 04 15 24.29 +04 50 04.8 17.3   704 – Lincoln Laboratory ETS, New Mexico MPS 191760
2006 12 11.21118 04 15 23.33 +04 50 20.7 17.8   704 – Lincoln Laboratory ETS, New Mexico MPS 191760
2006 12 11.22417 04 15 22.57 +04 50 38.6 17.9   704 – Lincoln Laboratory ETS, New Mexico MPS 191760
2006 12 11.23676 04 15 21.25 +04 50 55.0 17.8   704 – Lincoln Laboratory ETS, New Mexico MPS 191760
2006 12 11.24937 04 15 20.30 +04 51 11.2 17.6   704 – Lincoln Laboratory ETS, New Mexico MPS 191760
2006 12 11.36419 04 15 11.16 +04 53 43.1 17.3 V 703 – Catalina Sky Survey MPS 191760
